Regional Weather Roundup
Issued by NWS Kansas City/Pleasant Hill, MO

Home | Current Version | Previous Version | Graphics & Text | Print | Product List | Glossary Off
Versions: 1 2 3 4 5 6 7 8 9 10 11 12 13 14 15 16 17 18 19 20 21 22 23 24 25 26 27 28 29 30 31 32 33 34 35 36 37 38 39 40 41 42 43 44 45 46 47 48 49 50

328
ASUS43 KEAX 180310
RWREAX

WEATHER ROUNDUP FOR EASTERN KANSAS AND NORTHWEST MISSOURI
NATIONAL WEATHER SERVICE KANSAS CITY/PLEASANT HILL MO
900 PM CST TUE JAN 17 2017

KSZ040-057-103>105-MOZ028-029-037-043-180400-
...KANSAS CITY METROPOLITAN AREA...

CITY           SKY/WX    TMP DP  RH WIND       PRES   REMARKS
K.C. INTL      CLEAR     28  26  92 S7        30.14S WCI  21
K.C. DOWNTOWN  CLEAR     31  30  96 CALM      30.16S
LEES SUMMIT    PTCLDY    34  32  92 S8        30.17R WCI  27
OLATHE - IXD   CLEAR     32  31  96 S6        30.16S WCI  26
OLATHE - OJC   PTCLDY    31  31 100 S6        30.16R WCI  25
LAWRENCE       CLEAR     28  28 100 E3        30.16S FOG

$$

MOZ001>008-011>017-020>025-030>033-038>040-044>046-053-054-180400-
...NORTHERN AND CENTRAL MISSOURI...

CITY           SKY/WX    TMP DP  RH WIND       PRES   REMARKS
ST. JOSEPH     FOG       27  27 100 CALM      30.16R VSB 1/2
MOSBY          CLEAR     32  32 100 CALM      30.17R
WARRENSBURG    MOCLDY    36  32  87 SW3       30.18S
WHITEMAN AFB   CLOUDY    37  37 100 SW3       30.17S
CLINTON        CLOUDY    37  36  93 SW5       30.19S WCI  34
SEDALIA        CLOUDY    39  34  82 W7        30.19R WCI  34
WARSAW         NOT AVBL
CHILLICOTHE      N/A     36  32  85 CALM      30.17R
KIRKSVILLE     CLOUDY    36  34  92 W6        30.13S WCI  31

$$

MOZ041-047>049-056>058-063>065-088>090-097-180400-
...EASTERN AND SOUTHERN MISSOURI...

CITY           SKY/WX    TMP DP  RH WIND       PRES   REMARKS
ST. LOUIS INTL CLOUDY    42  36  79 W10       30.17R
SPIRIT OF STL  CLOUDY    41  37  86 W7        30.17R
COLUMBIA       CLOUDY    38  36  92 W13       30.17R WCI  30
JEFFERSON CITY CLOUDY    40  35  83 W9        30.20R WCI  34
ROLLA          CLOUDY    37  35  92 W8        30.16S WCI  31
OSAGE BEACH    CLOUDY    38  35  89 W3        30.20S
SPRINGFIELD    CLOUDY    37  35  92 NW3       30.17F
BRANSON        CLOUDY    39  36  87 CALM      30.18S
JOPLIN         CLOUDY    38  36  92 CALM      30.18F
WEST PLAINS    CLOUDY    40  36  86 NW7       30.16F

$$

IAZ060-094-KSZ022-034>040-054-083-096-NEZ052-066-093-180400-
...KANSAS...SOUTHEAST NEBRASKA AND IOWA...

CITY           SKY/WX    TMP DP  RH WIND       PRES   REMARKS
TOPEKA         CLOUDY    31  28  89 S5        30.16R WCI  26
MANHATTAN      CLOUDY    27  24  89 CALM      30.15R
EMPORIA        CLEAR     35  28  75 SW6       30.15S WCI  30
CHANUTE        CLEAR     33  31  92 S5        30.18R WCI  29
WICHITA        CLOUDY    35  32  88 CALM      30.14S
OMAHA          CLEAR     25  21  85 SE8       30.09S FOG     WCI  16
LINCOLN        CLOUDY    28  27  96 CALM      30.09F FOG
FALLS CITY     CLEAR     30  29  96 S7        30.13R WCI  23
LAMONI         CLOUDY    33  30  88 W7        30.11S WCI  27
DES MOINES     DRIZZLE   32  31  96 W9        30.10S FOG     WCI  24

$$





USA.gov is the U.S. government's official web portal to all federal, state and local government web resources and services.